COSMOS 249 DEB *, 3679

Orbit data source: Space-Track

COSMOS 249 DEB *, 3679 is space debris in LEO originally from a launch on Sun, 20 Oct 1968 UTC launched from the Tyuratam Missile And Space Complex (TTMTR). Debris objects in space refer to the collection of defunct objects orbiting the Earth. Examples of debris include non-operational satellites, rocket bodies, and fragments generated from explosions, collisions, or faulty payload assembly.

Loading next visibility...
COSMOS 249 DEB * details
Identifier
3679, 1968-091AE
Orbit
LEO
Last TLE update14 hours ago
Origin
Flag of CISPKO (CIS)
ManufacturerUnknown
MissionSpacecraft
Bus & MotorUnknown
MassUnknown
Launch date (UTC)
1968-10-20 (56 years ago)
Launch vehicleUnknown
Launch site
Tyuratam Missile And Space Complex (TTMTR)
Object type
Payload
Rocket body
Debris
Shape & HBRUnknown
Radar Cross SectionSmall (<0.1 m²)

Expand to show TLE details & history

TLE from 14 hours ago
0 COSMOS 249 DEB *
1 03679U 68091AE  24346.77663759  .00019421  00000-0  40579-2 0  9992
2 03679  62.7445 127.7701 0557279 160.4137 201.9283 13.92749462707227
Epoch: 2024-12-11T18:38Z
Definitive object data (Epoch: 2024-12-11T18:38:21.487Z)
Latitude-0.00002°
Longitude127.2141°
Altitude1,300.969 km
Speed7.017 km/s
True Right ascension08h 31m 04s
True Declination0° 00' 00"
Sunlit
Object was in full shadow at TLE epoch
Visualization TLE readout
Latitude-2.6396°
Longitude124.21629°
Altitude1,308.685 km
Speed7.009 km/s
Apparent Right ascension10h 21m 08s
Apparent Declination-50° 28' 21"
Sunlit
Object is in full shadow
Visualization observer readout
Local Sidereal Time06:50:10
Azimuth148.872° SSE
Elevation-11.502°
Doppler factor1
Orbital elements
Apogee altitude1,324.484 km
Perigee altitude511.299 km
Semi-major axis7,296.029 km
Eccentricity0.0557279
Inclination62.7445°
RAAN127.7701°
Arg. of periapsis160.4137°
True anomaly199.68913°
Mean anomaly201.9283°
Eccentric anomaly200.79473°
Mean motion3.48268 °/min
BSTAR0.0040579
Orbital period103.37 mins
Loading maneuver chart data...

COSMOS 249 DEB * Visibility forecast

Observer location: undefined°, undefined

Span
Click to sort rows by Start time (UTC) header in descending order
Start Az.
Max El. time (UTC)
Max El. Az.
Max El.
End time (UTC)
End Az.
11 mins2024-12-12 10:14:31.451Z170.024° S2024-12-12 10:20:31.451Z118.93° SE25.701°2024-12-12 10:25:31.451Z62.967° ENE
11 mins2024-12-12 12:01:31.451Z230.258° WSW2024-12-12 12:07:31.451Z308.795° NW41.217°2024-12-12 12:12:31.451Z25.415° NE
6 mins2024-12-12 13:52:31.451Z298.404° NW2024-12-12 13:55:31.451Z328.513° NNW14.887°2024-12-12 13:58:31.451Z0.156° NNE
5 mins2024-12-12 19:20:31.451Z355.158° N2024-12-12 19:22:31.451Z36.448° NE27.715°2024-12-12 19:25:31.451Z103.419° ESE
4 mins2024-12-12 21:07:31.451Z278.121° WNW2024-12-12 21:09:31.451Z238.298° WSW18.823°2024-12-12 21:11:31.451Z203.358° SW
|